| time (UTC) | temp F | wind direction | speed knots | gust knots | rain 1hr in | rain 24hr in | rain mn in | humidity % | barometer mb |
| 20260504223745 | 78 | 322 | 5.2 | 7.0 | 0.00 | 0.00 | 0.00 | 36 | 998.9 |
| 20260504223241 | 78 | 347 | 5.2 | 7.8 | 0.00 | 0.00 | 0.00 | 36 | 998.7 |
| 20260504222738 | 79 | 282 | 6.1 | 8.7 | 0.00 | 0.00 | 0.00 | 35 | 998.6 |
| 20260504222234 | 78 | 241 | 7.8 | 8.7 | 0.00 | 0.00 | 0.00 | 35 | 998.0 |
| 20260504221732 | 79 | 1 | 8.7 | 12.2 | 0.00 | 0.00 | 0.00 | 35 | 998.2 |
| 20260504221229 | 79 | 274 | 5.2 | 6.1 | 0.00 | 0.00 | 0.00 | 33 | 998.1 |
| 20260504220725 | 79 | 248 | 5.2 | 6.1 | 0.00 | 0.00 | 0.00 | 33 | 997.9 |
| 20260504220223 | 79 | 275 | 7.8 | 8.7 | 0.00 | 0.00 | 0.00 | 36 | 998.3 |
| 20260504215720 | 80 | 311 | 7.0 | 8.7 | 0.00 | 0.00 | 0.00 | 33 | 998.5 |
| 20260504215217 | 80 | 333 | 7.8 | 11.3 | 0.00 | 0.00 | 0.00 | 31 | 998.3 |
| 20260504214712 | 80 | 328 | 4.3 | 5.2 | 0.00 | 0.00 | 0.00 | 30 | 998.2 |
| 20260504214209 | 81 | 311 | 5.2 | 7.8 | 0.00 | 0.00 | 0.00 | 30 | 998.3 |
| 20260504213706 | 82 | 259 | 6.1 | 7.0 | 0.00 | 0.00 | 0.00 | 30 | 998.5 |
| 20260504213202 | 82 | 254 | 5.2 | 7.0 | 0.00 | 0.00 | 0.00 | 30 | 998.6 |
| 20260504212659 | 81 | 305 | 7.8 | 11.3 | 0.00 | 0.00 | 0.00 | 30 | 998.4 |
| 20260504212156 | 81 | 271 | 4.3 | 7.8 | 0.00 | 0.00 | 0.00 | 30 | 998.5 |
| 20260504211653 | 81 | 277 | 7.0 | 9.6 | 0.00 | 0.00 | 0.00 | 29 | 998.5 |
| 20260504211149 | 81 | 355 | 7.0 | 7.8 | 0.00 | 0.00 | 0.00 | 30 | 998.6 |
| 20260504210647 | 81 | 261 | 7.0 | 9.6 | 0.00 | 0.00 | 0.00 | 30 | 998.6 |
| 20260504210143 | 81 | 272 | 8.7 | 13.0 | 0.00 | 0.00 | 0.00 | 30 | 998.7 |
| 20260504205641 | 82 | 245 | 8.7 | 13.9 | 0.00 | 0.00 | 0.00 | 30 | 998.7 |
| 20260504205138 | 82 | 263 | 16.5 | 21.7 | 0.00 | 0.00 | 0.00 | 29 | 998.8 |
| 20260504204637 | 81 | 275 | 7.8 | 8.7 | 0.00 | 0.00 | 0.00 | 29 | 998.9 |
| 20260504204135 | 82 | 55 | 5.2 | 7.0 | 0.00 | 0.00 | 0.00 | 29 | 998.8 |
| 20260504203634 | 82 | 350 | 5.2 | 7.0 | 0.00 | 0.00 | 0.00 | 29 | 998.7 |
| 20260504203131 | 83 | 284 | 8.7 | 12.2 | 0.00 | 0.00 | 0.00 | 29 | 998.7 |
| 20260504202631 | 83 | 328 | 4.3 | 6.1 | 0.00 | 0.00 | 0.00 | 29 | 999.0 |
| 20260504202128 | 82 | 289 | 6.1 | 8.7 | 0.00 | 0.00 | 0.00 | 30 | 999.2 |
| 20260504201625 | 81 | 296 | 3.5 | 3.5 | 0.00 | 0.00 | 0.00 | 30 | 999.0 |
| 20260504201123 | 81 | 259 | 5.2 | 7.8 | 0.00 | 0.00 | 0.00 | 30 | 999.2 |
| 20260504200620 | 83 | 205 | 4.3 | 7.8 | 0.00 | 0.00 | 0.00 | 28 | 999.5 |
| 20260504200116 | 83 | 231 | 6.1 | 7.8 | 0.00 | 0.00 | 0.00 | 29 | 999.5 |
| 20260504195612 | 82 | 250 | 5.2 | 7.0 | 0.00 | 0.00 | 0.00 | 29 | 999.6 |
| 20260504195108 | 82 | 320 | 6.1 | 7.8 | 0.00 | 0.00 | 0.00 | 29 | 999.4 |
| 20260504194605 | 81 | 310 | 7.0 | 8.7 | 0.00 | 0.00 | 0.00 | 30 | 999.6 |
| 20260504194101 | 82 | 249 | 12.2 | 14.8 | 0.00 | 0.00 | 0.00 | 30 | 999.6 |
| 20260504193558 | 81 | 276 | 5.2 | 6.1 | 0.00 | 0.00 | 0.00 | 30 | 999.7 |
| 20260504193056 | 80 | 314 | 3.5 | 6.1 | 0.00 | 0.00 | 0.00 | 31 | 999.7 |
| 20260504192554 | 81 | 308 | 4.3 | 7.8 | 0.00 | 0.00 | 0.00 | 30 | 999.8 |
| 20260504192052 | 80 | 209 | 5.2 | 7.8 | 0.00 | 0.00 | 0.00 | 30 | 999.8 |
| 20260504191550 | 80 | 246 | 8.7 | 11.3 | 0.00 | 0.00 | 0.00 | 31 | 999.9 |
| 20260504191046 | 81 | 297 | 10.4 | 12.2 | 0.00 | 0.00 | 0.00 | 30 | 999.7 |
| 20260504190542 | 81 | 284 | 5.2 | 6.1 | 0.00 | 0.00 | 0.00 | 30 | 999.8 |
| 20260504190038 | 81 | 251 | 4.3 | 6.1 | 0.00 | 0.00 | 0.00 | 30 | 999.8 |
| 20260504185536 | 81 | 318 | 9.6 | 14.8 | 0.00 | 0.00 | 0.00 | 30 | 999.7 |
| 20260504185032 | 82 | 278 | 4.3 | 6.1 | 0.00 | 0.00 | 0.00 | 30 | 999.9 |
| 20260504184527 | 81 | 276 | 5.2 | 9.6 | 0.00 | 0.00 | 0.00 | 30 | 1000.0 |
| 20260504184023 | 81 | 156 | 5.2 | 7.0 | 0.00 | 0.00 | 0.00 | 29 | 1000.0 |
| 20260504183520 | 81 | 324 | 4.3 | 6.1 | 0.00 | 0.00 | 0.00 | 29 | 999.9 |
| 20260504183019 | 81 | 301 | 10.4 | 14.8 | 0.00 | 0.00 | 0.00 | 29 | 999.9 |
| 20260504182515 | 81 | 315 | 7.0 | 12.2 | 0.00 | 0.00 | 0.00 | 29 | 1000.1 |
| 20260504182012 | 81 | 261 | 5.2 | 8.7 | 0.00 | 0.00 | 0.00 | 29 | 1000.1 |
| 20260504181509 | 81 | 335 | 5.2 | 6.1 | 0.00 | 0.00 | 0.00 | 29 | 1000.1 |
| 20260504181008 | 80 | 261 | 8.7 | 13.0 | 0.00 | 0.00 | 0.00 | 29 | 1000.1 |
| 20260504180506 | 81 | 64 | 6.1 | 7.8 | 0.00 | 0.00 | 0.00 | 29 | 1000.1 |
| 20260504180004 | 80 | 246 | 4.3 | 7.8 | 0.00 | 0.00 | 0.00 | 29 | 1000.0 |
| 20260504175501 | 80 | 304 | 10.4 | 13.9 | 0.00 | 0.00 | 0.00 | 28 | 1000.2 |
| 20260504174958 | 80 | 54 | 4.3 | 7.0 | 0.00 | 0.00 | 0.00 | 30 | 1000.2 |
| 20260504174456 | 80 | 327 | 10.4 | 14.8 | 0.00 | 0.00 | 0.00 | 31 | 999.9 |
| 20260504173953 | 80 | 211 | 9.6 | 12.2 | 0.00 | 0.00 | 0.00 | 29 | 1000.2 |
| 20260504173449 | 79 | 291 | 9.6 | 13.0 | 0.00 | 0.00 | 0.00 | 30 | 1000.3 |
| 20260504172947 | 79 | 270 | 4.3 | 6.1 | 0.00 | 0.00 | 0.00 | 30 | 1000.3 |
| 20260504172443 | 79 | 251 | 13.0 | 14.8 | 0.00 | 0.00 | 0.00 | 31 | 1000.6 |
| 20260504171940 | 79 | 295 | 6.1 | 7.8 | 0.00 | 0.00 | 0.00 | 32 | 1000.5 |
| 20260504171437 | 79 | 264 | 7.0 | 7.8 | 0.00 | 0.00 | 0.00 | 33 | 1000.5 |
| 20260504170934 | 78 | 259 | 6.1 | 8.7 | 0.00 | 0.00 | 0.00 | 33 | 1000.5 |
| 20260504170430 | 78 | 239 | 7.8 | 11.3 | 0.00 | 0.00 | 0.00 | 33 | 1000.5 |
| 20260504160349 | 75 | 204 | 7.8 | 11.3 | 0.00 | 0.00 | 0.00 | 33 | 1001.4 |
| 20260504150814 | 71 | 282 | 4.3 | 6.1 | 0.00 | 0.00 | 0.00 | 37 | 1002.1 |
| 20260504150310 | 71 | 223 | 4.3 | 7.8 | 0.00 | 0.00 | 0.00 | 37 | 1002.5 |
| 20260504141240 | 65 | 210 | 4.3 | 6.1 | 0.00 | 0.00 | 0.00 | 46 | 1003.0 |
| 20260504140737 | 64 | 244 | 5.2 | 6.1 | 0.00 | 0.00 | 0.00 | 48 | 1002.8 |
| 20260504140232 | 63 | 236 | 3.5 | 3.5 | 0.00 | 0.00 | 0.00 | 49 | 1003.0 |
| 20260504130701 | 57 | 219 | 4.3 | 5.2 | 0.00 | 0.00 | 0.00 | 60 | 1003.4 |
| 20260504130157 | 56 | 241 | 3.5 | 5.2 | 0.00 | 0.00 | 0.00 | 59 | 1003.7 |
| 20260504120121 | 50 | 219 | 4.3 | 5.2 | 0.00 | 0.00 | 0.00 | 65 | 1003.7 |
| 20260504110549 | 47 | 285 | 0.9 | 0.9 | 0.00 | 0.00 | 0.00 | 65 | 1004.2 |
| 20260504100510 | 44 | 329 | 0.0 | 0.0 | 0.00 | 0.00 | 0.00 | 80 | 1004.7 |
| 20260504081903 | 49 | 263 | 1.7 | 2.6 | 0.00 | 0.00 | 0.00 | 63 | 1005.3 |
| 20260504081400 | 47 | 307 | 0.9 | 0.9 | 0.00 | 0.00 | 0.00 | 68 | 1005.3 |
| 20260504080856 | 48 | 288 | 0.9 | 1.7 | 0.00 | 0.00 | 0.00 | 65 | 1005.4 |
| 20260504080353 | 48 | 314 | 0.0 | 0.9 | 0.00 | 0.00 | 0.00 | 65 | 1005.4 |
| 20260504070320 | 48 | 328 | 0.0 | 0.9 | 0.00 | 0.00 | 0.00 | 70 | 1005.9 |
| 20260504060241 | 52 | 309 | 0.0 | 0.0 | 0.00 | 0.00 | 0.00 | 58 | 1006.8 |
| 20260504050709 | 54 | 323 | 0.0 | 0.9 | 0.00 | 0.00 | 0.00 | 57 | 1007.3 |
| 20260504050206 | 53 | 308 | 0.0 | 0.9 | 0.00 | 0.00 | 0.00 | 56 | 1007.3 |
| 20260504045703 | 54 | 329 | 0.0 | 0.0 | 0.00 | 0.01 | 0.01 | 57 | 1007.1 |
| 20260504045203 | 55 | 324 | 0.0 | 0.0 | 0.00 | 0.01 | 0.01 | 56 | 1007.1 |
| 20260504044702 | 56 | 2 | 0.0 | 0.0 | 0.00 | 0.01 | 0.01 | 54 | 1007.1 |
| 20260504044158 | 56 | 319 | 0.0 | 0.0 | 0.00 | 0.01 | 0.01 | 50 | 1007.2 |
| 20260504043655 | 56 | 325 | 0.0 | 0.0 | 0.00 | 0.01 | 0.01 | 50 | 1007.3 |
| 20260504043152 | 56 | 269 | 1.7 | 1.7 | 0.00 | 0.01 | 0.01 | 50 | 1007.3 |
| 20260504042650 | 56 | 298 | 0.9 | 0.9 | 0.00 | 0.01 | 0.01 | 50 | 1007.2 |
| 20260504042146 | 57 | 257 | 0.9 | 1.7 | 0.00 | 0.01 | 0.01 | 48 | 1007.4 |
| 20260504041642 | 56 | 272 | 1.7 | 1.7 | 0.00 | 0.01 | 0.01 | 52 | 1007.3 |
| 20260504041138 | 56 | 271 | 0.9 | 1.7 | 0.00 | 0.01 | 0.01 | 53 | 1007.1 |
| 20260504040636 | 57 | 307 | 0.0 | 0.9 | 0.00 | 0.01 | 0.01 | 52 | 1007.2 |
| 20260504040132 | 57 | 326 | 0.9 | 0.9 | 0.00 | 0.01 | 0.01 | 53 | 1007.2 |
| 20260504035629 | 57 | 317 | 0.0 | 0.0 | 0.00 | 0.01 | 0.01 | 53 | 1007.3 |
| 20260504035125 | 58 | 346 | 0.0 | 0.0 | 0.00 | 0.01 | 0.01 | 52 | 1007.3 |
| 20260504034624 | 59 | 320 | 0.0 | 0.0 | 0.00 | 0.01 | 0.01 | 50 | 1007.2 |
| 20260504034120 | 60 | 330 | 0.0 | 0.0 | 0.00 | 0.01 | 0.01 | 47 | 1007.4 |
| 20260504033618 | 61 | 319 | 0.0 | 0.0 | 0.00 | 0.01 | 0.01 | 44 | 1007.3 |
| 20260504033115 | 61 | 313 | 0.0 | 0.9 | 0.00 | 0.01 | 0.01 | 44 | 1007.4 |
| 20260504032612 | 61 | 333 | 0.9 | 0.9 | 0.00 | 0.01 | 0.01 | 46 | 1007.3 |
| 20260504032109 | 61 | 316 | 0.0 | 0.0 | 0.00 | 0.01 | 0.01 | 44 | 1007.2 |
| 20260504031606 | 62 | 313 | 1.7 | 1.7 | 0.00 | 0.01 | 0.01 | 42 | 1007.4 |
| 20260504031102 | 62 | 325 | 0.9 | 0.9 | 0.00 | 0.01 | 0.01 | 44 | 1007.4 |
| 20260504030559 | 63 | 316 | 0.0 | 0.0 | 0.00 | 0.01 | 0.01 | 41 | 1007.4 |
| 20260504030055 | 64 | 313 | 0.9 | 1.7 | 0.00 | 0.01 | 0.01 | 40 | 1007.4 |
| 20260504025553 | 64 | 315 | 0.9 | 0.9 | 0.00 | 0.01 | 0.01 | 38 | 1007.3 |
| 20260504025049 | 65 | 293 | 0.9 | 0.9 | 0.00 | 0.01 | 0.01 | 37 | 1007.4 |
| 20260504024547 | 65 | 295 | 0.9 | 0.9 | 0.00 | 0.01 | 0.01 | 37 | 1007.2 |
| 20260504024043 | 65 | 316 | 0.9 | 1.7 | 0.00 | 0.01 | 0.01 | 37 | 1007.2 |
| 20260504023540 | 65 | 297 | 2.6 | 2.6 | 0.00 | 0.01 | 0.01 | 37 | 1007.2 |
| 20260504023036 | 65 | 277 | 2.6 | 3.5 | 0.00 | 0.01 | 0.01 | 37 | 1007.1 |
| 20260504022532 | 66 | 282 | 2.6 | 2.6 | 0.00 | 0.01 | 0.01 | 37 | 1007.1 |
| 20260504022028 | 66 | 322 | 2.6 | 2.6 | 0.00 | 0.01 | 0.01 | 37 | 1007.1 |
| 20260504021526 | 66 | 304 | 2.6 | 3.5 | 0.00 | 0.01 | 0.01 | 36 | 1007.1 |
| 20260504021023 | 66 | 285 | 1.7 | 1.7 | 0.00 | 0.01 | 0.01 | 36 | 1007.0 |
| 20260504020520 | 66 | 270 | 3.5 | 5.2 | 0.00 | 0.01 | 0.01 | 36 | 1007.0 |
| 20260504020016 | 67 | 281 | 1.7 | 2.6 | 0.00 | 0.01 | 0.01 | 35 | 1006.9 |
| 20260504015513 | 67 | 311 | 0.9 | 1.7 | 0.00 | 0.01 | 0.01 | 35 | 1006.8 |
| 20260504015009 | 68 | 263 | 3.5 | 3.5 | 0.00 | 0.01 | 0.01 | 35 | 1006.6 |
| 20260504014505 | 68 | 302 | 1.7 | 2.6 | 0.00 | 0.01 | 0.01 | 34 | 1006.6 |
| 20260504014002 | 68 | 294 | 2.6 | 2.6 | 0.00 | 0.01 | 0.01 | 35 | 1006.6 |
| 20260504013500 | 68 | 259 | 0.9 | 1.7 | 0.00 | 0.01 | 0.01 | 34 | 1006.5 |
| 20260504012955 | 69 | 278 | 1.7 | 2.6 | 0.00 | 0.01 | 0.01 | 34 | 1006.6 |
| 20260504012454 | 69 | 311 | 1.7 | 2.6 | 0.00 | 0.01 | 0.01 | 33 | 1006.3 |
| 20260504011952 | 69 | 296 | 1.7 | 3.5 | 0.00 | 0.01 | 0.01 | 33 | 1006.4 |
| 20260504011448 | 69 | 298 | 3.5 | 5.2 | 0.00 | 0.01 | 0.01 | 33 | 1006.4 |
| 20260504010944 | 70 | 305 | 3.5 | 3.5 | 0.00 | 0.01 | 0.01 | 33 | 1006.4 |
| 20260504010440 | 70 | 309 | 1.7 | 1.7 | 0.00 | 0.01 | 0.01 | 32 | 1006.2 |
| 20260504005936 | 71 | 284 | 1.7 | 2.6 | 0.00 | 0.01 | 0.01 | 31 | 1006.0 |
| 20260504005433 | 71 | 277 | 3.5 | 3.5 | 0.00 | 0.01 | 0.01 | 31 | 1006.1 |
| 20260504004930 | 72 | 274 | 3.5 | 3.5 | 0.00 | 0.01 | 0.01 | 30 | 1006.2 |
| 20260504004428 | 72 | 307 | 2.6 | 3.5 | 0.00 | 0.01 | 0.01 | 30 | 1006.1 |
| 20260504003925 | 73 | 285 | 2.6 | 3.5 | 0.00 | 0.01 | 0.01 | 29 | 1006.2 |
| 20260504003421 | 73 | 294 | 2.6 | 3.5 | 0.00 | 0.01 | 0.01 | 29 | 1006.0 |
| 20260504002918 | 73 | 273 | 2.6 | 2.6 | 0.00 | 0.01 | 0.01 | 29 | 1006.1 |
| 20260504002415 | 74 | 288 | 1.7 | 1.7 | 0.00 | 0.01 | 0.01 | 29 | 1006.0 |
| 20260504001913 | 74 | 283 | 2.6 | 3.5 | 0.00 | 0.01 | 0.01 | 28 | 1006.1 |
| 20260504001410 | 74 | 340 | 5.2 | 7.0 | 0.00 | 0.01 | 0.01 | 28 | 1006.0 |
| 20260504000906 | 75 | 297 | 3.5 | 5.2 | 0.00 | 0.01 | 0.01 | 28 | 1005.9 |
| 20260504000403 | 75 | 279 | 5.2 | 7.8 | 0.00 | 0.01 | 0.01 | 28 | 1006.0 |
| 20260503235901 | 75 | 321 | 4.3 | 5.2 | 0.00 | 0.01 | 0.01 | 28 | 1005.7 |
| 20260503235359 | 75 | 276 | 5.2 | 6.1 | 0.00 | 0.01 | 0.01 | 28 | 1005.9 |
| 20260503234856 | 75 | 279 | 4.3 | 7.0 | 0.00 | 0.01 | 0.01 | 28 | 1005.9 |
| 20260503234353 | 75 | 285 | 3.5 | 3.5 | 0.00 | 0.01 | 0.01 | 28 | 1005.8 |
| 20260503233851 | 75 | 268 | 3.5 | 7.0 | 0.00 | 0.01 | 0.01 | 27 | 1005.7 |
| 20260503233347 | 76 | 308 | 6.1 | 7.8 | 0.00 | 0.01 | 0.01 | 27 | 1005.9 |
| 20260503232843 | 76 | 340 | 5.2 | 7.8 | 0.00 | 0.01 | 0.01 | 28 | 1005.7 |
| 20260503232341 | 75 | 277 | 11.3 | 18.2 | 0.00 | 0.01 | 0.01 | 27 | 1005.9 |
| 20260503231839 | 76 | 285 | 3.5 | 3.5 | 0.00 | 0.01 | 0.01 | 28 | 1005.8 |
| 20260503231336 | 76 | 325 | 4.3 | 6.1 | 0.00 | 0.01 | 0.01 | 28 | 1005.9 |
| 20260503230832 | 76 | 269 | 3.5 | 5.2 | 0.00 | 0.01 | 0.01 | 27 | 1005.8 |
| 20260503230329 | 76 | 297 | 7.0 | 7.8 | 0.00 | 0.01 | 0.01 | 27 | 1005.8 |
| 20260503225826 | 76 | 283 | 5.2 | 7.8 | 0.00 | 0.01 | 0.01 | 28 | 1005.9 |
| 20260503225322 | 76 | 288 | 6.1 | 7.8 | 0.00 | 0.01 | 0.01 | 28 | 1005.8 |
| 20260503224818 | 77 | 270 | 6.1 | 7.0 | 0.00 | 0.01 | 0.01 | 28 | 1005.9 |
| 20260503224316 | 77 | 268 | 5.2 | 7.0 | 0.00 | 0.01 | 0.01 | 27 | 1005.9 |